Flag for U.S.A. Weather past 2 weeks in Anderson, South Carolina, U.S.A.

Now
45 °F

Mostly cloudy.


Feels Like: 41 °F
Forecast: 41 / 46 °F
Wind: 7 mph from Northeast

Location: Anderson County Airport

Current Time: Dec 22, 2014 at 3:11:04 AM

Latest Report: Dec 22, 2014 at 1:56 AM


Visibility: 9 mi

Pressure: 30.10 "Hg

Humidity: 90%

Dew point: 42 °F

Location of AndersonLocation

Historic Weather in Anderson — Graph

°F

Anderson temperature yesterday

Maximum temperature yesterday: 52 °F (at 1:56 PM)
Minimum temperature yesterday: 43 °F (at 2:56 AM)
Average temperature yesterday: 47 °F

Past Weeks' High & Low Weather Summary

 TemperatureHumidityPressure
High66 °F (Dec 14, 2:56 PM)97% (Dec 16, 3:56 AM)30.40 "Hg (Dec 16, 3:56 AM)
Low23 °F (Dec 12, 7:56 AM)15% (Dec 13, 2:56 PM)29.89 "Hg (Dec 16, 1:56 PM)
Average44 °F67%30.13 "Hg
* Reported Dec 7 1:56 AM — Dec 22 1:56 AM, Anderson, Weather by CustomWeather, © 2014

Note: Actual official high and low records may vary slightly from our data, if they occured in-between our weather recording intervals... More about our weather records

Advertising

Anderson weather history for previous 24 hours

 ConditionsComfort  
Time TempWeatherWind HumidityBarometerVisibility
1:56 AM
Dec 22
45 °FMostly cloudy.7 mph90%30.10 "Hg9 mi
12:56 AM45 °FLight rain. Mostly cloudy.9 mph86%30.12 "Hg9 mi
11:56 PM
Dec 21
45 °FMostly cloudy.8 mph86%30.15 "Hg10 mi
10:56 PM47 °FLight rain. Overcast.10 mph77%30.17 "Hg10 mi
9:56 PM48 °FOvercast.8 mph71%30.15 "Hg10 mi
8:56 PM49 °FMostly cloudy.9 mph71%30.15 "Hg10 mi
7:56 PM49 °FOvercast.9 mph71%30.16 "Hg10 mi
6:56 PM50 °FOvercast.8 mph71%30.16 "Hg10 mi
5:56 PM50 °FMostly cloudy.7 mph71%30.15 "Hg10 mi
4:56 PM51 °FOvercast.9 mph69%30.14 "Hg10 mi
3:56 PM52 °FOvercast.8 mph66%30.15 "Hg10 mi
2:56 PM52 °FOvercast.8 mph66%30.14 "Hg10 mi
1:56 PM52 °FOvercast.6 mph66%30.16 "Hg10 mi
12:56 PM50 °FOvercast.8 mph68%30.19 "Hg10 mi
11:56 AM49 °FOvercast.10 mph71%30.22 "Hg10 mi
11:03 AM47 °FMostly cloudy.9 mph77%30.25 "Hg10 mi
10:56 AM47 °FMore clouds than sun.10 mph77%30.25 "Hg10 mi
9:56 AM46 °FPartly sunny.8 mph77%30.25 "Hg10 mi
8:56 AM44 °FMostly cloudy.7 mph82%30.25 "Hg10 mi
7:56 AM43 °FOvercast.6 mph86%30.25 "Hg8 mi
6:56 AM43 °FOvercast.5 mph89%30.24 "Hg8 mi
5:56 AM43 °FOvercast.5 mph89%30.23 "Hg8 mi
4:56 AM43 °FLow clouds.3 mph89%30.22 "Hg7 mi
3:56 AM43 °FLow clouds.6 mph89%30.22 "Hg7 mi
Weather by CustomWeather, © 2014

See weather overviewHow to use our weather pages